TimeEDT,TemperatureF,Dew PointF,Humidity,Sea Level PressureIn,VisibilityMPH,Wind Direction,Wind SpeedMPH,Gust SpeedMPH,PrecipitationIn,Events,Conditions,WindDirDegrees,DateUTC
12:07 AM,42.8,39.2,87,29.61,5.0,NNE,24.2,33.4,0.06,Rain,Heavy Rain,30,2011-10-20 04:07:00
12:54 AM,43.0,-9999,N/A,29.59,4.0,NNE,27.6,36.8,0.34,Rain,Heavy Rain,30,2011-10-20 04:54:00
1:16 AM,42.8,-9999,N/A,29.52,4.0,NNE,28.8,41.4,0.11,Rain,Heavy Rain,20,2011-10-20 05:16:00
1:25 AM,42.8,-9999,N/A,29.53,5.0,NNE,25.3,34.5,0.17,Rain,Heavy Rain,20,2011-10-20 05:25:00
1:54 AM,43.0,-9999,N/A,29.52,5.0,NNE,26.5,39.1,0.25,Rain,Heavy Rain,30,2011-10-20 05:54:00
2:54 AM,43.0,43.0,100,29.49,3.0,NNE,21.9,33.4,0.20,Rain,Heavy Rain,30,2011-10-20 06:54:00
3:04 AM,42.8,42.8,100,29.48,2.5,NE,26.5,35.7,0.05,Rain,Heavy Rain,40,2011-10-20 07:04:00
3:18 AM,42.8,42.8,100,29.48,2.5,NNE,23.0,31.1,0.13,Rain,Heavy Rain,30,2011-10-20 07:18:00
3:54 AM,43.0,43.0,100,29.47,3.0,NNE,19.6,25.3,0.31,Rain,Heavy Rain,30,2011-10-20 07:54:00
4:54 AM,43.0,43.0,100,29.45,5.0,NNE,18.4,29.9,0.14,Rain,Rain,20,2011-10-20 08:54:00
5:20 AM,42.8,42.8,100,29.43,6.0,NNE,20.7,27.6,0.05,Rain,Rain,20,2011-10-20 09:20:00
5:54 AM,44.1,44.1,100,29.42,7.0,NNE,18.4,28.8,0.12,Rain,Rain,30,2011-10-20 09:54:00
6:02 AM,42.8,42.8,100,29.40,7.0,NNE,21.9,28.8,0.02,Rain,Rain,20,2011-10-20 10:02:00
6:39 AM,42.8,42.8,100,29.37,6.0,NNE,20.7,28.8,0.11,Rain,Rain,30,2011-10-20 10:39:00
6:43 AM,42.8,42.8,100,29.37,6.0,NNE,19.6,28.8,0.12,Rain,Heavy Rain,30,2011-10-20 10:43:00
6:54 AM,43.0,42.1,97,29.38,6.0,North,24.2,31.1,0.16,Rain,Rain,10,2011-10-20 10:54:00
7:54 AM,43.0,42.1,97,29.36,7.0,NNE,21.9,29.9,0.15,Rain,Rain,20,2011-10-20 11:54:00
8:54 AM,43.0,42.1,97,29.34,6.0,NNE,21.9,28.8,0.16,Rain,Heavy Rain,30,2011-10-20 12:54:00
9:00 AM,42.8,42.8,100,29.33,4.0,NNE,21.9,28.8,0.03,Rain,Heavy Rain,20,2011-10-20 13:00:00
9:09 AM,42.8,42.8,100,29.33,3.0,NNE,16.1,32.2,0.06,Rain,Heavy Rain,20,2011-10-20 13:09:00
9:40 AM,42.8,42.8,100,29.32,2.5,NNE,24.2,33.4,0.12,Rain,Rain,20,2011-10-20 13:40:00
9:54 AM,43.0,42.1,97,29.33,2.5,NNE,24.2,32.2,0.13,Rain,Rain,20,2011-10-20 13:54:00
10:41 AM,42.8,42.8,100,29.31,1.8,NNE,19.6,31.1,0.06,Rain,Rain,20,2011-10-20 14:41:00
10:49 AM,42.8,42.8,100,29.31,2.5,NNE,17.3,29.9,0.08,Rain,Rain,20,2011-10-20 14:49:00
10:54 AM,43.0,42.1,97,29.32,2.0,NNE,19.6,-,0.08,Rain,Rain,20,2011-10-20 14:54:00
11:00 AM,42.8,42.8,100,29.31,3.0,NNE,18.4,26.5,0.01,Rain,Rain,20,2011-10-20 15:00:00
11:11 AM,42.8,41.0,93,29.31,3.0,NNE,21.9,29.9,0.03,Rain,Rain,20,2011-10-20 15:11:00
11:21 AM,42.8,41.0,93,29.31,3.0,NNE,24.2,33.4,0.06,Rain,Rain,30,2011-10-20 15:21:00
11:54 AM,43.0,41.0,93,29.32,3.0,NNE,20.7,31.1,0.16,Rain,Rain,20,2011-10-20 15:54:00
12:54 PM,43.0,41.0,93,29.32,4.0,North,18.4,28.8,0.11,Rain,Rain,10,2011-10-20 16:54:00
1:32 PM,42.8,41.0,93,29.31,4.0,NNE,15.0,28.8,0.06,Rain,Rain,20,2011-10-20 17:32:00
1:54 PM,42.1,41.0,96,29.32,4.0,North,16.1,-,0.10,Rain,Rain,10,2011-10-20 17:54:00
2:02 PM,42.8,41.0,93,29.31,4.0,NNE,16.1,-,0.00,Rain,Rain,20,2011-10-20 18:02:00
2:07 PM,42.8,39.2,87,29.31,7.0,North,18.4,23.0,0.00,Rain,Light Rain,10,2011-10-20 18:07:00
2:13 PM,42.8,41.0,93,29.31,7.0,North,16.1,-,0.01,Rain,Light Rain,10,2011-10-20 18:13:00
2:43 PM,42.8,39.2,87,29.32,5.0,North,20.7,28.8,0.04,Rain,Rain,10,2011-10-20 18:43:00
2:54 PM,42.1,39.9,92,29.33,7.0,North,17.3,25.3,0.04,Rain,Light Rain,360,2011-10-20 18:54:00
3:40 PM,42.8,41.0,93,29.33,7.0,North,13.8,23.0,0.02,Rain,Light Rain,360,2011-10-20 19:40:00
3:54 PM,43.0,41.0,93,29.35,7.0,North,19.6,26.5,0.02,Rain,Light Rain,360,2011-10-20 19:54:00
4:08 PM,42.8,41.0,93,29.34,7.0,North,13.8,-,0.00,Rain,Light Rain,350,2011-10-20 20:08:00
4:27 PM,42.8,42.8,100,29.35,5.0,North,12.7,20.7,0.01,Rain,Light Rain,350,2011-10-20 20:27:00
4:42 PM,42.8,42.8,100,29.36,3.0,North,16.1,-,0.01,Rain,Light Rain,350,2011-10-20 20:42:00
4:49 PM,42.8,42.8,100,29.36,3.0,North,13.8,-,0.02,Rain,Light Rain,350,2011-10-20 20:49:00
4:54 PM,43.0,42.1,97,29.38,4.0,North,16.1,-,0.02,Rain,Light Rain,350,2011-10-20 20:54:00
5:02 PM,42.8,41.0,93,29.37,6.0,North,11.5,24.2,0.00,Rain,Light Rain,350,2011-10-20 21:02:00
5:24 PM,42.8,42.8,100,29.37,6.0,North,15.0,21.9,0.01,Rain,Light Rain,350,2011-10-20 21:24:00
5:54 PM,43.0,42.1,97,29.40,5.0,NNW,12.7,-,0.02,Rain,Light Rain,340,2011-10-20 21:54:00
6:01 PM,42.8,42.8,100,29.40,3.0,North,13.8,20.7,0.00,Rain,Light Rain,350,2011-10-20 22:01:00
6:22 PM,42.8,42.8,100,29.41,3.0,NNW,12.7,-,0.01,Rain,Rain,340,2011-10-20 22:22:00
6:29 PM,42.8,42.8,100,29.41,4.0,NNW,15.0,-,0.02,Rain,Light Rain,340,2011-10-20 22:29:00
6:37 PM,42.8,41.0,93,29.42,4.0,North,13.8,23.0,0.03,Rain,Light Rain,350,2011-10-20 22:37:00
6:43 PM,42.8,41.0,93,29.42,5.0,North,15.0,27.6,0.03,Rain,Light Rain,350,2011-10-20 22:43:00
6:54 PM,42.1,41.0,96,29.44,7.0,North,12.7,-,0.03,Rain,Light Rain,350,2011-10-20 22:54:00
7:08 PM,42.8,41.0,93,29.44,6.0,NNW,13.8,21.9,0.01,Rain,Light Rain,340,2011-10-20 23:08:00
7:15 PM,42.8,41.0,93,29.45,7.0,NNW,13.8,-,0.01,Rain,Light Rain,340,2011-10-20 23:15:00
7:21 PM,42.8,41.0,93,29.45,9.0,NNW,16.1,-,0.02,Rain,Light Rain,340,2011-10-20 23:21:00
7:28 PM,42.8,39.2,87,29.45,10.0,NNW,13.8,20.7,0.02,Rain,Light Rain,340,2011-10-20 23:28:00
7:54 PM,42.1,39.9,92,29.49,10.0,NNW,12.7,-,0.03,Rain,Light Rain,330,2011-10-20 23:54:00
8:30 PM,41.0,39.2,93,29.49,10.0,NW,10.4,-,0.00,Rain,Light Rain,320,2011-10-21 00:30:00
8:38 PM,42.8,39.2,87,29.49,9.0,NNW,10.4,-,0.00,Rain,Light Rain,330,2011-10-21 00:38:00
8:46 PM,42.8,41.0,93,29.50,7.0,NW,9.2,-,0.01,Rain,Light Rain,320,2011-10-21 00:46:00
8:54 PM,41.0,39.9,96,29.52,5.0,NNW,11.5,-,0.01,Rain,Light Rain,330,2011-10-21 00:54:00
9:21 PM,41.0,39.2,93,29.51,4.0,NW,13.8,-,0.01,Rain,Light Rain,320,2011-10-21 01:21:00
9:36 PM,41.0,39.2,93,29.52,5.0,NNW,13.8,21.9,0.01,Rain,Light Rain,330,2011-10-21 01:36:00
9:45 PM,41.0,39.2,93,29.53,5.0,NNW,11.5,-,0.01,Rain,Light Rain,330,2011-10-21 01:45:00
9:54 PM,41.0,39.9,96,29.55,5.0,NNW,13.8,21.9,0.01,Rain,Light Rain,330,2011-10-21 01:54:00
10:11 PM,41.0,39.2,93,29.55,6.0,NNW,13.8,23.0,0.00,Rain,Light Rain,330,2011-10-21 02:11:00
10:19 PM,41.0,39.2,93,29.55,6.0,NNW,18.4,-,0.01,Rain,Light Rain,330,2011-10-21 02:19:00
10:54 PM,41.0,39.9,96,29.58,7.0,NNW,12.7,21.9,0.01,Rain,Light Rain,330,2011-10-21 02:54:00
11:14 PM,41.0,39.2,93,29.57,7.0,NNW,11.5,20.7,0.00,Rain,Light Rain,330,2011-10-21 03:14:00
11:54 PM,41.0,39.0,93,29.61,7.0,NNW,11.5,-,0.01,Rain,Light Rain,330,2011-10-21 03:54:00
11:58 PM,41.0,39.2,93,29.60,7.0,NNW,12.7,-,0.00,Rain,Light Rain,330,2011-10-21 03:58:00